Lid_Strength_Index
5 4 4 3 3 2 2 2 2 2 2 2 1 1 1 2 2 2 2 1 1 1 1 1 1 1 1 1 1 1 2 3 4 3 2 1 1 1 0 -1 -1 -0 0
5 6 6 6 5 5 6 5 5 5 4 3 4 4 4 2 1 2 2 1 2 2 1 1 2 1 1 1 2 3 3 2 3 4 2 2 3 2 2 1 2 1 1
8 8 8 8 7 7 7 6 6 5 5 5 4 4 3 3 4 4 4 4 4 4 4 4 4 4 4 4 3 3 2 2 2 3 3 2 2 2 2 1 2 1 1
8 8 7 6 6 6 6 5 5 5 5 5 4 5 5 5 6 6 6 6 6 6 5 5 5 5 5 5 5 5 5 5 5 5 5 4 3 1 1 2 2 1 1
7 7 7 7 6 6 6 6 6 5 5 5 5 5 4 4 5 5 5 5 6 5 5 5 4 4 4 3 4 4 4 5 5 5 4 4 4 3 3 2 2 2 1
8 8 7 7 7 7 7 7 7 7 7 6 6 6 6 6 7 7 6 7 6 6 7 6 6 5 5 5 5 5 4 5 6 6 6 6 5 5 4 4 3 4 4
8 8 7 7 7 7 7 7 8 8 8 8 8 8 7 7 7 7 6 6 6 6 6 6 6 5 5 5 5 5 5 5 5 5 6 6 6 5 4 5 4 4 4
8 8 7 7 7 8 8 9 9 9 9 9 9 8 8 8 8 8 7 6 7 7 6 6 6 6 6 6 6 6 6 6 5 5 5 5 4 4 5 5 5 5 4
9 8 8 8 9 10 10 10 10 10 10 10 9 9 9 8 8 8 7 7 7 7 7 7 7 7 7 8 7 7 7 7 6 6 7 7 8 8 7 6 7 7 7
9 10 10 10 10 10 11 11 10 11 11 10 10 9 9 9 9 9 8 7 8 8 7 7 7 8 9 9 8 8 9 8 7 6 6 6 7 7 7 6 7 8 8
10 10 11 11 11 11 11 11 12 12 12 11 11 10 9 9 8 8 8 8 8 8 9 9 7 8 8 9 9 8 9 8 8 9 8 8 7 7 7 6 6 6 7
11 12 12 12 12 11 12 13 13 13 12 12 10 10 9 8 8 8 9 10 10 10 9 8 8 9 10 10 10 10 10 9 9 9 10 9 9 8 7 6 6 5 4
13 13 13 13 13 13 13 13 13 12 11 11 10 10 10 10 9 10 11 11 10 10 9 9 9 10 10 9 9 9 9 8 9 10 10 9 8 7 6 6 5 5 4
14 14 14 13 13 13 14 13 12 12 12 12 12 12 11 11 11 12 11 11 10 10 9 9 9 9 9 8 8 8 8 8 9 9 8 7 6 6 6 5 6 6 6
14 14 13 13 13 13 13 13 12 12 12 12 12 12 13 13 13 13 13 12 11 10 10 9 9 8 9 9 8 8 8 8 8 8 8 8 7 6 6 5 5 5 6
14 13 13 13 13 13 13 13 12 12 12 12 13 13 13 13 13 13 13 12 12 11 10 10 9 8 9 9 8 8 7 7 7 7 7 7 7 7 6 5 5 5 5
13 13 13 13 14 14 14 14 14 13 12 13 13 13 13 13 12 12 12 13 12 11 11 10 9 8 8 8 8 7 7 6 6 6 6 6 6 6 6 5 5 5 5
13 13 13 14 14 14 14 14 14 15 15 15 13 13 13 13 12 12 12 12 13 12 12 11 10 9 8 7 8 8 7 7 8 7 7 7 5 4 4 4 5 5 5
13 13 13 14 14 14 13 14 14 13 14 14 14 13 13 13 12 13 12 13 14 13 13 12 10 9 8 8 8 9 9 9 9 9 8 8 7 6 4 3 3 8 7
13 14 14 14 14 14 14 14 14 14 14 14 14 14 14 13 14 14 13 13 13 14 13 12 11 10 9 9 9 10 11 10 10 11 10 9 8 7 5 4 3 3 4
13 14 15 14 14 14 14 14 14 14 14 14 14 14 14 14 15 14 14 14 13 13 13 13 12 11 11 11 10 11 12 12 12 12 12 11 10 7 6 5 3 3 3
13 14 14 15 14 15 15 14 14 14 15 15 15 14 15 14 15 15 14 14 13 13 12 13 13 12 12 12 12 12 13 14 13 13 14 12 11 8 7 6 4 2 3
13 14 15 16 16 17 15 15 15 16 16 16 15 16 16 16 15 15 15 14 14 13 13 12 13 13 12 12 12 13 14 14 14 14 14 14 12 10 8 7 6 3 3
14 15 16 17 17 17 17 17 17 16 16 17 17 17 17 16 16 16 16 15 14 14 13 13 13 14 13 13 13 14 14 14 14 14 14 13 12 11 8 8 6 3 4
16 17 17 17 17 17 17 17 17 17 17 17 17 17 17 17 17 17 16 15 15 15 14 14 13 13 14 14 14 15 15 15 14 15 13 13 12 10 8 8 7 4 4
17 17 17 17 17 17 17 17 17 17 17 17 17 17 17 17 17 16 16 16 15 15 15 14 14 14 14 14 14 14 15 15 15 15 13 12 11 11 10 10 7 6 4